AMX537 MMUN-MMMX

Flight info

Callsign AMX537
Flight time 1h 48m
Altitude 38000
Route UDGUV2A UDGUV UT78 MEDOS UT20 UBVOV UT101 ENAGA ENAGA3A
Aircraft B38M/M-SDE1FGHILORVWXY/HB1

Departure

Time 2026-05-08 04:18
Airport Cancún International Airport (MMUN)

Arrival

Time 2026-05-08 06:06
Airport Mexico City Benito Juárez International Airport (MMMX)
Time Latitude Longitude Altitude Speed Heading
2026-05-08 03:38 21.04807 -86.88280 31 ft 0 kts 139°
2026-05-08 03:44 21.04807 -86.88281 31 ft 0 kts 139°
2026-05-08 04:09 21.04824 -86.88296 31 ft 4 kts 140°
2026-05-08 04:09 21.04846 -86.88310 31 ft 4 kts 168°
2026-05-08 04:09 21.04871 -86.88308 31 ft 4 kts 207°
2026-05-08 04:09 21.04877 -86.88304 31 ft 2 kts 213°
2026-05-08 04:13 21.04872 -86.88308 31 ft 2 kts 213°
2026-05-08 04:13 21.04854 -86.88321 31 ft 5 kts 213°
2026-05-08 04:13 21.04819 -86.88345 31 ft 7 kts 213°
2026-05-08 04:13 21.04773 -86.88378 31 ft 9 kts 213°
2026-05-08 04:14 21.04716 -86.88418 31 ft 11 kts 213°
2026-05-08 04:14 21.04649 -86.88466 31 ft 12 kts 214°
2026-05-08 04:14 21.04576 -86.88519 31 ft 13 kts 214°
2026-05-08 04:14 21.04496 -86.88575 32 ft 14 kts 213°
2026-05-08 04:15 21.04446 -86.88617 33 ft 8 kts 244°
2026-05-08 04:15 21.04462 -86.88669 33 ft 8 kts 302°
2026-05-08 04:15 21.04497 -86.88727 33 ft 10 kts 304°
2026-05-08 04:15 21.04541 -86.88796 33 ft 12 kts 304°
2026-05-08 04:16 21.04591 -86.88876 33 ft 14 kts 303°
2026-05-08 04:16 21.04641 -86.88962 32 ft 13 kts 289°
2026-05-08 04:16 21.04600 -86.89034 34 ft 12 kts 213°
2026-05-08 04:16 21.04527 -86.89074 34 ft 12 kts 173°
2026-05-08 04:17 21.04478 -86.89012 35 ft 11 kts 124°
2026-05-08 04:17 21.04388 -86.88868 35 ft 54 kts 124°
2026-05-08 04:17 21.04024 -86.88285 36 ft 133 kts 124°
2026-05-08 04:17 21.03409 -86.87290 251 ft 179 kts 125°
2026-05-08 04:18 21.02700 -86.86091 1041 ft 193 kts 123°
2026-05-08 04:18 21.01964 -86.84951 2259 ft 186 kts 134°
2026-05-08 04:18 21.00783 -86.84358 3086 ft 196 kts 174°
2026-05-08 04:18 20.99444 -86.84713 3917 ft 200 kts 205°
2026-05-08 04:19 20.98401 -86.85567 4216 ft 200 kts 213°
2026-05-08 04:19 20.97248 -86.86457 4092 ft 207 kts 206°
2026-05-08 04:19 20.95962 -86.87255 3712 ft 224 kts 206°
2026-05-08 04:19 20.94676 -86.88137 4711 ft 224 kts 216°
2026-05-08 04:20 20.93710 -86.89560 5330 ft 251 kts 245°
2026-05-08 04:20 20.93321 -86.91463 5975 ft 273 kts 258°
2026-05-08 04:20 20.93022 -86.93535 6641 ft 288 kts 258°
2026-05-08 04:20 20.92711 -86.95685 7464 ft 294 kts 259°
2026-05-08 04:21 20.92399 -86.97859 8349 ft 299 kts 259°
2026-05-08 04:21 20.92083 -87.00070 9205 ft 303 kts 260°
2026-05-08 04:21 20.91757 -87.02315 10044 ft 308 kts 260°
2026-05-08 04:21 20.91426 -87.04593 10785 ft 313 kts 260°
2026-05-08 04:22 20.91091 -87.06905 11537 ft 317 kts 260°
2026-05-08 04:22 20.90751 -87.09248 12272 ft 321 kts 260°
2026-05-08 04:22 20.90407 -87.11622 13004 ft 325 kts 260°
2026-05-08 04:22 20.90058 -87.14027 13718 ft 330 kts 260°
2026-05-08 04:23 20.89703 -87.16467 14354 ft 333 kts 260°
2026-05-08 04:23 20.89346 -87.18923 15024 ft 335 kts 260°
2026-05-08 04:23 20.88986 -87.21395 15681 ft 338 kts 260°
2026-05-08 04:23 20.88623 -87.23886 16333 ft 340 kts 260°
2026-05-08 04:24 20.88257 -87.26397 16968 ft 343 kts 260°
2026-05-08 04:24 20.87888 -87.28923 17607 ft 345 kts 260°
2026-05-08 04:24 20.87516 -87.31472 18227 ft 348 kts 260°
2026-05-08 04:24 20.87140 -87.34037 18780 ft 350 kts 260°
2026-05-08 04:25 20.86765 -87.36612 19323 ft 351 kts 259°
2026-05-08 04:25 20.86384 -87.39201 19854 ft 353 kts 259°
2026-05-08 04:25 20.86003 -87.41800 20394 ft 355 kts 259°
2026-05-08 04:25 20.85616 -87.44414 20921 ft 357 kts 259°
2026-05-08 04:26 20.85231 -87.47039 21438 ft 358 kts 259°
2026-05-08 04:26 20.84840 -87.49670 21985 ft 359 kts 259°
2026-05-08 04:26 20.84451 -87.52318 22432 ft 362 kts 259°
2026-05-08 04:26 20.84056 -87.54981 22969 ft 363 kts 259°
2026-05-08 04:27 20.83660 -87.57655 23449 ft 365 kts 259°
2026-05-08 04:27 20.83261 -87.60341 23875 ft 367 kts 259°
2026-05-08 04:27 20.82861 -87.63043 24273 ft 369 kts 259°
2026-05-08 04:27 20.82458 -87.65754 24659 ft 371 kts 259°
2026-05-08 04:28 20.82052 -87.68482 25056 ft 372 kts 259°
2026-05-08 04:28 20.81645 -87.71219 25437 ft 374 kts 259°
2026-05-08 04:28 20.81235 -87.73969 25814 ft 376 kts 259°
2026-05-08 04:28 20.80826 -87.76735 26194 ft 378 kts 261°
2026-05-08 04:29 20.80752 -87.79549 26573 ft 380 kts 271°
2026-05-08 04:29 20.80831 -87.82368 26990 ft 380 kts 270°
2026-05-08 04:29 20.80889 -87.85186 27437 ft 379 kts 270°
2026-05-08 04:29 20.80948 -87.87994 27887 ft 377 kts 270°
2026-05-08 04:30 20.81009 -87.90789 28339 ft 376 kts 270°
2026-05-08 04:30 20.81069 -87.93578 28765 ft 375 kts 270°
2026-05-08 04:30 20.81129 -87.96356 29186 ft 373 kts 270°
2026-05-08 04:30 20.81188 -87.99127 29593 ft 372 kts 270°
2026-05-08 04:31 20.81247 -88.01890 29995 ft 371 kts 270°
2026-05-08 04:31 20.81304 -88.04638 30335 ft 370 kts 270°
2026-05-08 04:31 20.81361 -88.07380 30648 ft 369 kts 270°
2026-05-08 04:31 20.81418 -88.10117 30954 ft 368 kts 270°
2026-05-08 04:32 20.81474 -88.12848 31257 ft 367 kts 270°
2026-05-08 04:32 20.81529 -88.15564 31551 ft 365 kts 270°
2026-05-08 04:32 20.81584 -88.18281 31830 ft 365 kts 270°
2026-05-08 04:32 20.81638 -88.20984 32111 ft 363 kts 270°
2026-05-08 04:33 20.81692 -88.23680 32375 ft 362 kts 270°
2026-05-08 04:33 20.81745 -88.26392 32417 ft 369 kts 270°
2026-05-08 04:33 20.81854 -88.32003 32407 ft 385 kts 270°
2026-05-08 04:34 20.81965 -88.37826 32445 ft 400 kts 270°
2026-05-08 04:34 20.82079 -88.43878 32495 ft 414 kts 270°
2026-05-08 04:35 20.82195 -88.50150 32532 ft 430 kts 270°
2026-05-08 04:35 20.82292 -88.55537 32578 ft 442 kts 270°
2026-05-08 04:36 20.82411 -88.62259 32583 ft 457 kts 270°
2026-05-08 04:36 20.82471 -88.65674 32752 ft 460 kts 270°
2026-05-08 04:36 20.82529 -88.69086 33073 ft 459 kts 270°
2026-05-08 04:37 20.82588 -88.72495 33406 ft 458 kts 270°
2026-05-08 04:37 20.82645 -88.75896 33750 ft 457 kts 270°
2026-05-08 04:37 20.82702 -88.79291 34073 ft 456 kts 270°
2026-05-08 04:37 20.82757 -88.82673 34353 ft 455 kts 270°
2026-05-08 04:38 20.82812 -88.86049 34627 ft 454 kts 270°
2026-05-08 04:38 20.82866 -88.89425 34896 ft 453 kts 270°
2026-05-08 04:38 20.82919 -88.92746 35157 ft 453 kts 270°
2026-05-08 04:38 20.82971 -88.96110 35418 ft 452 kts 270°
2026-05-08 04:39 20.83024 -88.99510 35679 ft 451 kts 270°
2026-05-08 04:39 20.83075 -89.02858 35943 ft 450 kts 270°
2026-05-08 04:39 20.83126 -89.06203 36192 ft 450 kts 270°
2026-05-08 04:39 20.83174 -89.09495 36432 ft 449 kts 270°
2026-05-08 04:40 20.83224 -89.12827 36677 ft 448 kts 270°
2026-05-08 04:40 20.83272 -89.16156 36908 ft 447 kts 270°
2026-05-08 04:40 20.83320 -89.19473 37132 ft 446 kts 270°
2026-05-08 04:40 20.83344 -89.22789 37355 ft 446 kts 269°
2026-05-08 04:41 20.83326 -89.26099 37565 ft 445 kts 269°
2026-05-08 04:41 20.83313 -89.29400 37777 ft 444 kts 269°
2026-05-08 04:41 20.83302 -89.32740 37944 ft 443 kts 269°
2026-05-08 04:41 20.83291 -89.36034 37967 ft 443 kts 269°
2026-05-08 04:42 20.83267 -89.42583 37963 ft 440 kts 269°
2026-05-08 04:42 20.83241 -89.49125 37951 ft 440 kts 269°
2026-05-08 04:43 20.83212 -89.55668 37950 ft 440 kts 269°
2026-05-08 04:43 20.83181 -89.62203 37952 ft 440 kts 269°
2026-05-08 04:44 20.83144 -89.68734 37951 ft 440 kts 269°
2026-05-08 04:44 20.83104 -89.75273 37949 ft 440 kts 269°
2026-05-08 04:45 20.83061 -89.81808 37946 ft 440 kts 269°
2026-05-08 04:45 20.83016 -89.88340 37941 ft 440 kts 269°
2026-05-08 04:46 20.82969 -89.94835 37939 ft 440 kts 269°
2026-05-08 04:46 20.82919 -90.01371 37940 ft 439 kts 270°
2026-05-08 04:47 20.82864 -90.07879 37934 ft 437 kts 270°
2026-05-08 04:47 20.82755 -90.14382 37922 ft 437 kts 270°
2026-05-08 04:48 20.82648 -90.20881 37918 ft 437 kts 270°
2026-05-08 04:48 20.82539 -90.27388 37917 ft 437 kts 270°
2026-05-08 04:49 20.82426 -90.33931 37919 ft 437 kts 270°
2026-05-08 04:49 20.82311 -90.40435 37916 ft 437 kts 270°
2026-05-08 04:50 20.82194 -90.46931 37912 ft 437 kts 270°
2026-05-08 04:50 20.82076 -90.53386 37910 ft 437 kts 270°
2026-05-08 04:51 20.81954 -90.59885 37913 ft 437 kts 270°
2026-05-08 04:51 20.81830 -90.66377 37908 ft 437 kts 270°
2026-05-08 04:52 20.81703 -90.72873 37907 ft 437 kts 270°
2026-05-08 04:52 20.81575 -90.79367 37904 ft 437 kts 269°
2026-05-08 04:53 20.81443 -90.85855 37910 ft 437 kts 269°
2026-05-08 04:53 20.81309 -90.92345 37911 ft 436 kts 269°
2026-05-08 04:54 20.81173 -90.98825 37912 ft 436 kts 269°
2026-05-08 04:54 20.81035 -91.05308 37909 ft 436 kts 269°
2026-05-08 04:55 20.80894 -91.11789 37906 ft 436 kts 269°
2026-05-08 04:55 20.80751 -91.18265 37905 ft 436 kts 269°
2026-05-08 04:56 20.80607 -91.24738 37910 ft 436 kts 269°
2026-05-08 04:56 20.80456 -91.31212 37909 ft 435 kts 269°
2026-05-08 04:57 20.80304 -91.37680 37910 ft 435 kts 269°
2026-05-08 04:57 20.80150 -91.44150 37906 ft 436 kts 269°
2026-05-08 04:58 20.79993 -91.50617 37906 ft 436 kts 269°
2026-05-08 04:58 20.79834 -91.57089 37907 ft 435 kts 269°
2026-05-08 04:59 20.79671 -91.63559 37911 ft 435 kts 269°
2026-05-08 04:59 20.79508 -91.70023 37908 ft 435 kts 269°
2026-05-08 05:00 20.79341 -91.76491 37910 ft 435 kts 269°
2026-05-08 05:00 20.79173 -91.82957 37913 ft 436 kts 269°
2026-05-08 05:01 20.79001 -91.89427 37909 ft 436 kts 269°
2026-05-08 05:01 20.78827 -91.95900 37912 ft 436 kts 269°
2026-05-08 05:02 20.78651 -92.02370 37911 ft 436 kts 269°
2026-05-08 05:02 20.78472 -92.08845 37913 ft 436 kts 269°
2026-05-08 05:03 20.78291 -92.15315 37910 ft 436 kts 269°
2026-05-08 05:03 20.78108 -92.21784 37910 ft 436 kts 269°
2026-05-08 05:04 20.77922 -92.28255 37906 ft 436 kts 268°
2026-05-08 05:04 20.77733 -92.34725 37913 ft 435 kts 268°
2026-05-08 05:05 20.77543 -92.41192 37919 ft 435 kts 268°
2026-05-08 05:05 20.77349 -92.47659 37911 ft 435 kts 268°
2026-05-08 05:06 20.77154 -92.54125 37910 ft 435 kts 268°
2026-05-08 05:06 20.76956 -92.60594 37908 ft 436 kts 268°
2026-05-08 05:07 20.76755 -92.67066 37909 ft 436 kts 268°
2026-05-08 05:07 20.76552 -92.73541 37907 ft 436 kts 268°
2026-05-08 05:08 20.76347 -92.80022 37908 ft 436 kts 268°
2026-05-08 05:08 20.76138 -92.86499 37912 ft 437 kts 268°
2026-05-08 05:09 20.75928 -92.92984 37907 ft 437 kts 268°
2026-05-08 05:09 20.75715 -92.99470 37911 ft 437 kts 268°
2026-05-08 05:10 20.75390 -93.09202 37911 ft 437 kts 268°
2026-05-08 05:11 20.75171 -93.15695 37909 ft 437 kts 268°
2026-05-08 05:11 20.74949 -93.22190 37911 ft 438 kts 268°
2026-05-08 05:12 20.74725 -93.28685 37908 ft 438 kts 268°
2026-05-08 05:12 20.74499 -93.35183 37913 ft 438 kts 268°
2026-05-08 05:13 20.74360 -93.41687 37911 ft 438 kts 270°
2026-05-08 05:13 20.74414 -93.48191 37909 ft 438 kts 270°
2026-05-08 05:14 20.74447 -93.54702 37910 ft 438 kts 270°
2026-05-08 05:14 20.74475 -93.61218 37910 ft 438 kts 270°
2026-05-08 05:15 20.74501 -93.67731 37908 ft 439 kts 270°
2026-05-08 05:15 20.74525 -93.74247 37908 ft 439 kts 269°
2026-05-08 05:16 20.74543 -93.79662 37908 ft 439 kts 269°
2026-05-08 05:16 20.74562 -93.86186 37898 ft 440 kts 270°
2026-05-08 05:17 20.74578 -93.92719 37910 ft 440 kts 270°
2026-05-08 05:17 20.74592 -93.99242 37906 ft 439 kts 270°
2026-05-08 05:18 20.74604 -94.05771 37906 ft 439 kts 270°
2026-05-08 05:18 20.74614 -94.12293 37906 ft 439 kts 270°
2026-05-08 05:19 20.74621 -94.18813 37908 ft 439 kts 269°
2026-05-08 05:19 20.74625 -94.25333 37908 ft 439 kts 269°
2026-05-08 05:20 20.74627 -94.31851 37910 ft 439 kts 269°
2026-05-08 05:20 20.74626 -94.38368 37911 ft 439 kts 269°
2026-05-08 05:21 20.74623 -94.44882 37909 ft 438 kts 269°
2026-05-08 05:21 20.74617 -94.51391 37909 ft 438 kts 269°
2026-05-08 05:22 20.74610 -94.57904 37912 ft 438 kts 269°
2026-05-08 05:22 20.74599 -94.64411 37903 ft 438 kts 269°
2026-05-08 05:23 20.74586 -94.70920 37908 ft 438 kts 269°
2026-05-08 05:23 20.74571 -94.77422 37908 ft 438 kts 269°
2026-05-08 05:24 20.74553 -94.83884 37909 ft 438 kts 269°
2026-05-08 05:24 20.74534 -94.90385 37912 ft 438 kts 269°
2026-05-08 05:25 20.74513 -94.96887 37911 ft 438 kts 269°
2026-05-08 05:25 20.73863 -95.03312 37920 ft 436 kts 259°
2026-05-08 05:26 20.72719 -95.09681 37916 ft 437 kts 258°
2026-05-08 05:26 20.71549 -95.16050 37913 ft 437 kts 258°
2026-05-08 05:27 20.70375 -95.22414 37912 ft 437 kts 258°
2026-05-08 05:27 20.69199 -95.28775 37911 ft 437 kts 258°
2026-05-08 05:28 20.68020 -95.35137 37909 ft 436 kts 258°
2026-05-08 05:28 20.66839 -95.41492 37909 ft 436 kts 258°
2026-05-08 05:29 20.65657 -95.47847 37909 ft 436 kts 258°
2026-05-08 05:29 20.64473 -95.54193 37907 ft 436 kts 258°
2026-05-08 05:30 20.63287 -95.60541 37906 ft 436 kts 258°
2026-05-08 05:30 20.62098 -95.66884 37909 ft 436 kts 258°
2026-05-08 05:31 20.60909 -95.73222 37909 ft 436 kts 258°
2026-05-08 05:31 20.59717 -95.79559 37912 ft 435 kts 258°
2026-05-08 05:32 20.58524 -95.85890 37906 ft 435 kts 258°
2026-05-08 05:32 20.57329 -95.92214 37908 ft 435 kts 258°
2026-05-08 05:33 20.56132 -95.98540 37909 ft 435 kts 258°
2026-05-08 05:33 20.54933 -96.04864 37906 ft 435 kts 258°
2026-05-08 05:34 20.53731 -96.11192 37908 ft 435 kts 258°
2026-05-08 05:34 20.52526 -96.17515 37914 ft 435 kts 258°
2026-05-08 05:35 20.51318 -96.23838 37912 ft 435 kts 258°
2026-05-08 05:35 20.50108 -96.30159 37911 ft 435 kts 257°
2026-05-08 05:36 20.48897 -96.36477 37913 ft 435 kts 257°
2026-05-08 05:36 20.47684 -96.42790 37908 ft 435 kts 257°
2026-05-08 05:37 20.46467 -96.49107 37906 ft 435 kts 257°
2026-05-08 05:37 20.45250 -96.55420 37903 ft 435 kts 257°
2026-05-08 05:38 20.44030 -96.61731 37900 ft 434 kts 257°
2026-05-08 05:38 20.42808 -96.68040 37903 ft 434 kts 257°
2026-05-08 05:39 20.41585 -96.74340 37895 ft 434 kts 257°
2026-05-08 05:39 20.40359 -96.80645 37897 ft 434 kts 257°
2026-05-08 05:40 20.38929 -96.86881 37896 ft 433 kts 252°
2026-05-08 05:40 20.37188 -96.93032 37893 ft 433 kts 253°
2026-05-08 05:41 20.35485 -96.99188 37889 ft 433 kts 253°
2026-05-08 05:41 20.33786 -97.05342 37891 ft 433 kts 253°
2026-05-08 05:42 20.32086 -97.11492 37888 ft 433 kts 253°
2026-05-08 05:42 20.30385 -97.17638 37896 ft 433 kts 253°
2026-05-08 05:43 20.28681 -97.23783 37899 ft 432 kts 253°
2026-05-08 05:43 20.26978 -97.29920 37903 ft 432 kts 253°
2026-05-08 05:44 20.25272 -97.36052 37907 ft 432 kts 253°
2026-05-08 05:44 20.23561 -97.42198 37911 ft 433 kts 253°
2026-05-08 05:44 20.22706 -97.45265 37495 ft 431 kts 253°
2026-05-08 05:45 20.21845 -97.48348 36502 ft 438 kts 253°
2026-05-08 05:45 20.20969 -97.51486 35541 ft 445 kts 252°
2026-05-08 05:45 20.20081 -97.54665 34610 ft 452 kts 252°
2026-05-08 05:45 20.19182 -97.57879 33915 ft 452 kts 252°
2026-05-08 05:46 20.18291 -97.61065 33490 ft 445 kts 252°
2026-05-08 05:46 20.17414 -97.64201 33051 ft 439 kts 252°
2026-05-08 05:46 20.16549 -97.67286 32653 ft 432 kts 252°
2026-05-08 05:46 20.15694 -97.70332 32286 ft 425 kts 252°
2026-05-08 05:47 20.14860 -97.73323 31983 ft 417 kts 252°
2026-05-08 05:47 20.14033 -97.76262 31584 ft 413 kts 252°
2026-05-08 05:47 20.13210 -97.79182 31089 ft 411 kts 251°
2026-05-08 05:47 20.12389 -97.82084 30669 ft 408 kts 251°
2026-05-08 05:48 20.11570 -97.84974 30179 ft 407 kts 251°
2026-05-08 05:48 20.10755 -97.87854 29689 ft 405 kts 251°
2026-05-08 05:48 20.09945 -97.90714 29227 ft 403 kts 251°
2026-05-08 05:48 20.09141 -97.93556 28754 ft 400 kts 251°
2026-05-08 05:49 20.08347 -97.96374 28274 ft 397 kts 251°
2026-05-08 05:49 20.07559 -97.99178 27827 ft 394 kts 251°
2026-05-08 05:49 20.06761 -98.01963 27372 ft 392 kts 251°
2026-05-08 05:49 20.05980 -98.04724 26951 ft 389 kts 252°
2026-05-08 05:50 20.05198 -98.07478 26501 ft 388 kts 251°
2026-05-08 05:50 20.04415 -98.10208 26133 ft 385 kts 251°
2026-05-08 05:50 20.03639 -98.12921 25750 ft 383 kts 251°
2026-05-08 05:50 20.02687 -98.15536 25350 ft 377 kts 238°
2026-05-08 05:51 20.01104 -98.17718 24981 ft 372 kts 222°
2026-05-08 05:51 19.99020 -98.19312 24596 ft 369 kts 206°
2026-05-08 05:51 19.96655 -98.20361 24225 ft 367 kts 200°
2026-05-08 05:51 19.94262 -98.21288 23892 ft 365 kts 199°
2026-05-08 05:52 19.91867 -98.22177 23500 ft 364 kts 199°
2026-05-08 05:52 19.89477 -98.23047 23108 ft 362 kts 199°
2026-05-08 05:52 19.87095 -98.23900 22688 ft 360 kts 198°
2026-05-08 05:52 19.84725 -98.24742 22298 ft 359 kts 198°
2026-05-08 05:53 19.82365 -98.25578 21896 ft 357 kts 198°
2026-05-08 05:53 19.80012 -98.26409 21491 ft 356 kts 198°
2026-05-08 05:53 19.77672 -98.27236 21135 ft 354 kts 198°
2026-05-08 05:53 19.75339 -98.28061 20747 ft 352 kts 198°
2026-05-08 05:54 19.73017 -98.28881 20367 ft 351 kts 198°
2026-05-08 05:54 19.70741 -98.29757 20151 ft 344 kts 207°
2026-05-08 05:54 19.68835 -98.31217 20037 ft 335 kts 225°
2026-05-08 05:54 19.67449 -98.33189 19683 ft 335 kts 242°
2026-05-08 05:55 19.66668 -98.35513 19328 ft 336 kts 259°
2026-05-08 05:55 19.66508 -98.37983 18963 ft 336 kts 266°
2026-05-08 05:55 19.66129 -98.40408 18648 ft 331 kts 254°
2026-05-08 05:55 19.65620 -98.42762 18514 ft 323 kts 257°
2026-05-08 05:56 19.65171 -98.45063 18387 ft 314 kts 257°
2026-05-08 05:56 19.64751 -98.47302 18214 ft 306 kts 258°
2026-05-08 05:56 19.64347 -98.49510 17885 ft 304 kts 258°
2026-05-08 05:56 19.63952 -98.51707 17545 ft 302 kts 258°
2026-05-08 05:57 19.63562 -98.53892 17218 ft 301 kts 258°
2026-05-08 05:57 19.63301 -98.55361 16997 ft 299 kts 258°
2026-05-08 05:57 19.62917 -98.57526 16665 ft 298 kts 258°
2026-05-08 05:57 19.62536 -98.59678 16346 ft 296 kts 258°
2026-05-08 05:58 19.62156 -98.61817 16034 ft 294 kts 258°
2026-05-08 05:58 19.61794 -98.63850 15730 ft 293 kts 258°
2026-05-08 05:58 19.61433 -98.65886 15445 ft 291 kts 258°
2026-05-08 05:58 19.61233 -98.67013 15285 ft 290 kts 258°
2026-05-08 05:59 19.60862 -98.69098 15082 ft 284 kts 258°
2026-05-08 05:59 19.60500 -98.71128 14973 ft 275 kts 258°
2026-05-08 05:59 19.60151 -98.73090 14862 ft 267 kts 258°
2026-05-08 05:59 19.59809 -98.75009 14601 ft 264 kts 258°
2026-05-08 06:00 19.59468 -98.76918 14335 ft 262 kts 258°
2026-05-08 06:00 19.59121 -98.78811 14034 ft 261 kts 255°
2026-05-08 06:00 19.58392 -98.80543 13751 ft 257 kts 238°
2026-05-08 06:00 19.57476 -98.82179 13391 ft 258 kts 239°
2026-05-08 06:01 19.56569 -98.83809 13090 ft 256 kts 239°
2026-05-08 06:01 19.55660 -98.85433 12742 ft 256 kts 239°
2026-05-08 06:01 19.54766 -98.87033 12628 ft 245 kts 239°
2026-05-08 06:01 19.53919 -98.88550 12438 ft 232 kts 238°
2026-05-08 06:02 19.53136 -98.89951 12078 ft 213 kts 238°
2026-05-08 06:02 19.52397 -98.91275 11585 ft 204 kts 238°
2026-05-08 06:02 19.51678 -98.92533 11131 ft 195 kts 237°
2026-05-08 06:02 19.50998 -98.93746 10749 ft 189 kts 236°
2026-05-08 06:03 19.50321 -98.94952 10222 ft 193 kts 237°
2026-05-08 06:03 19.49606 -98.96192 9474 ft 200 kts 234°
2026-05-08 06:03 19.48844 -98.97395 9148 ft 189 kts 239°
2026-05-08 06:03 19.48199 -98.98581 8920 ft 185 kts 241°
2026-05-08 06:04 19.47561 -98.99745 8687 ft 182 kts 242°
2026-05-08 06:04 19.46936 -99.00916 8594 ft 183 kts 244°
2026-05-08 06:04 19.46314 -99.02070 8272 ft 174 kts 241°
2026-05-08 06:04 19.45725 -99.03173 7910 ft 169 kts 240°
2026-05-08 06:05 19.45115 -99.04234 7609 ft 169 kts 242°
2026-05-08 06:05 19.44543 -99.05296 7349 ft 162 kts 238°
2026-05-08 06:05 19.44017 -99.06241 7303 ft 122 kts 238°
2026-05-08 06:05 19.43691 -99.06817 7305 ft 64 kts 239°
2026-05-08 06:06 19.43528 -99.07109 7305 ft 28 kts 239°
2026-05-08 06:06 19.43423 -99.07296 7305 ft 29 kts 239°
2026-05-08 06:06 19.43291 -99.07430 7305 ft 22 kts 194°
2026-05-08 06:06 19.43175 -99.07460 7305 ft 15 kts 194°
2026-05-08 06:07 19.43099 -99.07523 7305 ft 14 kts 240°
2026-05-08 06:07 19.43049 -99.07611 7305 ft 14 kts 239°
2026-05-08 06:07 19.42998 -99.07699 7305 ft 14 kts 238°
2026-05-08 06:07 19.42937 -99.07779 7305 ft 14 kts 226°
2026-05-08 06:08 19.42859 -99.07838 7305 ft 14 kts 208°
2026-05-08 06:08 19.42777 -99.07890 7305 ft 14 kts 223°
2026-05-08 06:08 19.42726 -99.07973 7305 ft 13 kts 239°
2026-05-08 06:08 19.42678 -99.08058 7305 ft 13 kts 239°
2026-05-08 06:09 19.42630 -99.08144 7305 ft 13 kts 239°
2026-05-08 06:09 19.42582 -99.08229 7305 ft 13 kts 239°
2026-05-08 06:09 19.42521 -99.08284 7305 ft 11 kts 166°
2026-05-08 06:09 19.42460 -99.08251 7305 ft 9 kts 150°
2026-05-08 06:10 19.42416 -99.08224 7305 ft 6 kts 150°
2026-05-08 06:10 19.42387 -99.08208 7305 ft 4 kts 157°
2026-05-08 06:10 19.42355 -99.08201 7305 ft 6 kts 174°
2026-05-08 06:10 19.42308 -99.08202 7305 ft 7 kts 183°
2026-05-08 06:11 19.42255 -99.08205 7305 ft 8 kts 183°
2026-05-08 06:11 19.42204 -99.08182 7305 ft 9 kts 129°
2026-05-08 06:11 19.42186 -99.08127 7305 ft 7 kts 76°
2026-05-08 06:11 19.42205 -99.08093 7305 ft 4 kts 54°
2026-05-08 06:12 19.42208 -99.08089 7305 ft 0 kts 54°
2026-05-08 06:12 19.42211 -99.08085 7305 ft 0 kts 54°
2026-05-08 06:12 19.42214 -99.08081 7305 ft 1 kts 55°
2026-05-08 06:12 19.42214 -99.08080 7305 ft 0 kts 55°